Theta_e
351 355 356 356 360 355 356 351 346 351 352 348 346 350 350 341 348 352 340 347 343 343 345 339 334 333 333 332 331 331 330 331 335 336 336 335 335 334 336 335 333 332 333 334 334 334 333 331 332
355 357 357 354 359 357 355 347 350 352 351 345 343 348 348 348 346 345 350 348 341 343 344 340 334 333 332 331 331 331 332 333 334 335 336 335 335 334 336 336 335 334 333 334 335 333 332 331 330
357 358 355 353 356 352 350 352 344 349 351 348 344 349 347 347 347 348 349 348 341 343 343 342 335 333 334 333 333 333 334 337 336 335 334 334 333 332 331 332 333 336 335 335 336 334 334 333 332
358 356 355 358 354 351 349 346 345 348 350 347 347 350 349 348 348 347 348 348 344 342 343 343 342 337 334 335 336 338 340 339 339 337 336 334 333 332 331 331 331 332 332 332 332 333 334 334 333
352 347 355 357 351 349 347 348 346 350 349 347 349 349 348 348 346 348 349 349 346 342 341 342 342 342 341 339 339 341 341 339 337 336 334 333 333 332 332 332 332 331 332 333 334 334 333 333 333
344 348 358 352 352 348 346 346 344 349 347 346 349 346 345 348 346 346 349 348 345 335 338 340 341 341 341 342 341 340 340 339 336 335 334 334 334 334 333 333 332 332 333 337 336 335 333 333 334
345 355 356 349 350 352 345 341 344 349 347 346 346 345 344 347 346 347 347 346 344 334 333 336 341 342 337 337 337 337 337 337 337 337 337 337 338 338 337 337 336 336 335 336 337 337 336 333 332
345 353 354 349 356 354 347 344 345 347 349 346 346 344 343 343 345 346 346 347 343 335 334 334 334 336 337 339 337 332 332 333 335 335 334 334 334 334 335 335 336 336 337 337 339 338 337 336 331
346 354 356 352 352 351 348 346 343 347 347 346 346 345 344 343 346 347 346 346 345 344 336 337 333 335 334 333 332 333 336 333 334 333 333 332 334 337 337 342 335 329 332 336 336 335 335 336 337
347 352 348 348 348 349 347 345 344 344 346 347 345 345 343 343 345 347 345 346 347 345 345 346 343 345 346 340 333 332 335 337 337 342 347 346 347 341 340 343 346 333 329 330 330 343 331 329 334
347 351 345 347 345 347 345 346 345 346 346 345 345 344 343 343 344 344 345 346 345 345 346 347 347 347 348 346 340 337 343 348 344 343 346 347 347 347 344 345 347 346 346 346 345 346 346 344 344
351 349 345 347 349 350 346 346 348 346 346 346 345 344 344 343 343 342 342 342 343 345 346 347 348 348 347 347 347 347 345 347 346 340 345 350 347 348 346 346 347 346 347 347 347 346 347 345 345
346 345 346 344 349 343 342 341 347 349 346 346 345 344 344 343 343 342 342 343 343 346 347 345 345 345 348 346 348 349 348 348 348 347 344 345 345 347 347 347 347 347 347 346 348 348 348 347 345
344 343 343 342 345 350 348 346 345 348 346 344 344 343 343 343 343 342 343 343 344 344 343 344 343 345 347 345 345 347 349 346 348 347 346 345 347 348 349 349 348 347 345 346 345 345 345 346 346
342 346 343 344 345 347 346 347 343 346 346 343 343 342 343 342 342 342 343 343 343 343 343 343 343 342 345 345 342 344 346 343 347 347 347 347 346 348 349 347 349 346 345 346 346 344 343 341 343
343 347 353 348 346 347 342 346 345 342 345 342 342 342 342 341 341 341 342 341 342 342 342 343 343 340 338 339 341 338 343 345 346 348 348 349 351 347 347 346 345 347 346 347 348 346 343 342 343
344 346 350 348 348 344 346 350 346 345 344 342 342 342 341 341 341 341 341 341 341 342 342 343 343 343 337 341 343 349 349 349 348 349 348 350 350 354 352 350 349 347 347 347 347 347 346 343 344
340 343 344 346 350 349 349 349 341 345 348 344 341 342 342 342 343 342 341 340 341 341 342 343 343 344 346 343 343 349 351 349 349 350 349 351 352 355 354 349 349 348 348 346 346 348 345 343 344
338 340 344 342 349 350 347 346 346 343 346 349 342 343 345 345 344 343 342 340 340 342 343 344 344 348 346 348 344 349 350 349 349 350 351 351 352 354 352 350 346 344 345 343 344 344 343 346 349
338 338 338 339 341 347 347 348 346 347 347 349 344 344 344 345 344 343 342 342 339 341 343 344 346 348 349 349 346 346 349 350 351 351 350 349 349 352 349 352 343 343 347 342 342 348 349 349 349
333 334 338 337 337 339 347 349 349 347 351 348 346 344 344 344 345 343 344 343 341 342 343 344 347 348 348 347 347 350 351 353 353 351 344 337 347 351 351 349 343 346 345 347 347 348 348 347 346
330 333 336 336 334 335 339 349 351 346 350 350 349 345 344 344 345 344 345 345 343 344 345 347 343 342 345 345 348 351 352 354 351 344 339 347 348 347 350 349 344 348 348 349 346 346 345 346 345
326 332 334 335 332 336 340 344 343 347 350 351 348 349 345 344 344 345 345 347 346 346 347 348 344 343 343 343 349 350 351 349 353 353 351 350 350 349 349 350 338 349 350 348 344 348 347 346 346
328 329 330 330 331 341 340 341 346 347 349 351 349 349 347 346 345 345 345 345 348 348 348 349 348 344 343 343 344 351 353 350 354 354 353 352 354 354 351 353 338 340 347 347 345 343 340 340 344
326 327 328 334 348 349 338 339 340 341 344 349 350 349 350 347 346 346 346 345 347 350 349 349 349 348 344 343 344 344 348 349 351 353 355 356 353 353 355 353 341 333 341 343 335 335 332 332 333
325 325 325 335 349 348 339 341 340 340 342 349 350 350 350 349 347 347 346 346 345 350 349 349 348 348 347 343 343 344 344 346 347 349 357 356 345 346 355 354 352 334 333 328 338 344 341 328 329
325 325 327 328 328 331 339 339 341 340 340 344 348 348 350 351 349 348 347 346 346 347 348 348 348 347 347 347 344 343 343 343 343 344 348 355 355 354 355 355 354 334 329 332 344 345 343 331 329
325 325 321 323 334 338 341 344 349 345 343 343 346 347 349 349 349 349 347 346 346 346 346 347 346 346 347 347 346 344 342 342 342 343 344 352 355 357 358 354 353 331 326 335 344 345 338 331 331
325 323 323 321 325 329 343 341 343 341 344 344 343 347 347 349 349 351 348 349 347 346 346 347 346 346 347 348 347 346 343 342 342 342 343 349 356 357 356 351 350 341 326 339 343 343 342 329 330
326 325 322 322 323 326 332 337 338 341 345 348 347 347 347 348 348 350 350 350 349 347 345 347 346 345 346 347 347 348 346 342 342 342 342 348 355 354 352 351 350 347 331 335 344 346 344 331 324
Wind_Speed
5 5 4 0 1 2 6 7 13 17 12 21 25 20 8 20 5 5 26 20 16 22 21 20 22 22 22 23 22 20 18 17 16 15 15 16 17 16 15 15 14 13 13 14 15 15 15 15 13
6 4 1 4 4 4 5 7 5 21 18 26 22 30 27 16 26 30 31 18 20 23 24 22 22 22 21 21 19 18 17 15 14 14 15 15 15 14 14 13 12 12 11 10 11 11 12 12 12
11 6 8 2 3 5 5 3 8 23 24 25 12 17 14 21 25 29 26 17 20 23 23 22 22 22 21 20 18 16 15 13 12 12 13 13 12 11 12 12 11 11 10 10 10 9 9 9 9
5 3 6 2 1 5 3 7 11 20 28 30 31 15 22 33 37 27 25 22 20 21 22 21 21 20 19 19 16 14 12 12 11 11 11 10 10 9 8 9 8 9 8 9 9 8 6 7 8
3 2 2 3 3 8 6 5 11 23 23 21 31 20 29 34 32 35 36 24 19 18 21 21 20 19 18 16 14 13 13 12 11 11 10 8 7 6 5 5 6 6 6 5 6 6 4 5 6
5 3 3 2 5 3 3 14 6 27 31 28 31 28 25 38 33 34 30 23 17 17 20 21 20 18 17 16 15 14 12 11 10 10 9 8 7 6 5 5 4 5 4 4 4 4 4 4 4
2 3 5 5 1 6 4 5 2 22 27 19 35 19 29 35 33 36 27 20 15 22 20 20 20 18 17 15 13 12 12 11 10 9 7 7 7 6 5 5 5 4 4 4 3 3 2 3 5
2 1 5 4 3 4 6 6 22 20 24 30 35 12 18 27 34 32 27 20 15 21 15 17 18 17 16 14 13 11 11 10 9 8 7 7 8 8 7 6 5 2 3 4 3 2 2 2 4
12 3 8 7 3 5 12 12 19 27 26 27 16 30 32 26 33 37 28 26 19 15 18 16 15 14 14 12 12 12 10 10 10 9 8 6 4 5 8 6 4 2 1 3 2 2 2 3 5
8 6 9 4 8 5 15 19 16 17 22 26 29 31 26 24 32 35 38 31 21 18 16 15 16 13 11 10 9 11 13 12 12 8 9 8 7 5 5 6 7 2 1 2 3 2 2 2 5
12 6 13 6 21 4 10 6 25 23 7 29 35 34 29 24 26 30 29 29 19 22 18 15 14 13 10 10 8 11 10 10 10 7 6 3 2 3 4 5 5 2 0 2 3 3 1 7 3
12 14 3 19 15 16 6 12 13 19 20 36 34 32 29 24 26 24 22 20 19 28 18 18 17 13 7 9 9 10 9 6 3 6 3 2 2 3 1 4 6 5 3 4 6 4 5 4 4
9 9 25 24 29 24 17 15 8 7 32 34 33 29 27 24 24 21 26 19 21 26 27 22 16 10 10 7 5 4 5 3 3 2 1 5 5 3 5 9 10 8 6 6 8 8 6 10 7
9 18 9 16 10 17 18 3 4 13 30 32 34 29 28 24 24 22 28 23 27 22 21 22 20 19 17 14 11 9 9 7 9 2 2 1 6 6 10 10 12 12 10 13 12 10 8 6 6
14 3 10 14 10 7 24 3 4 3 5 29 29 29 27 26 24 21 26 26 26 22 20 22 19 19 22 19 17 17 13 12 6 6 6 6 6 9 10 10 12 13 13 13 14 14 14 11 11
2 7 5 6 10 7 6 4 6 7 5 28 28 28 25 26 26 22 23 24 25 25 22 21 15 13 19 19 11 13 16 8 6 5 5 8 5 7 12 13 12 11 13 14 11 9 11 7 4
3 3 11 7 19 10 4 5 18 11 5 22 28 28 26 27 28 25 25 23 27 27 23 17 12 9 10 13 12 15 11 8 9 6 6 8 8 8 9 9 12 11 14 12 9 7 8 6 3
8 2 6 3 11 9 23 2 16 11 10 16 31 30 29 29 31 27 26 24 27 27 24 19 16 13 9 7 12 13 9 6 7 7 10 7 8 9 12 10 11 11 12 8 3 8 6 3 1
11 9 13 5 17 11 17 10 10 15 12 19 28 32 29 26 34 26 27 27 28 27 24 21 22 15 16 11 11 17 14 9 5 7 6 8 7 11 9 8 6 9 10 6 8 8 6 4 4
9 11 4 5 9 13 13 8 12 10 15 25 31 30 32 25 35 29 30 31 32 30 25 21 22 21 17 12 10 14 14 11 12 9 6 6 6 6 6 7 4 6 9 11 10 8 7 5 3
6 8 1 1 3 1 9 8 8 11 24 33 33 39 37 32 34 32 32 35 34 32 27 22 25 23 19 15 13 13 9 11 14 9 3 8 6 6 3 5 3 5 9 8 7 4 4 3 3
8 10 5 7 7 4 5 3 4 4 13 17 26 36 38 36 32 36 35 37 37 34 29 22 23 20 19 18 16 16 17 14 6 4 8 8 3 2 2 7 1 4 5 7 5 5 3 3 3
10 10 7 3 4 8 4 5 7 7 8 13 21 34 39 40 36 41 35 36 39 37 33 25 21 19 18 19 17 16 14 13 13 11 5 4 4 2 2 5 3 8 5 2 3 3 5 7 9
8 8 9 8 5 4 4 4 7 7 18 16 18 33 41 39 33 37 37 32 41 39 34 30 23 20 19 19 22 19 17 12 13 5 4 2 1 4 3 3 2 7 5 4 4 3 3 4 8
8 4 3 5 5 7 10 1 12 8 10 16 17 25 36 47 38 34 38 37 30 40 38 33 26 20 21 20 21 24 21 16 15 9 8 7 5 8 8 3 1 4 8 7 5 6 5 6 10
7 4 5 3 5 7 8 3 7 8 13 24 29 27 32 41 43 35 39 38 36 38 38 35 30 25 22 23 20 22 24 22 16 18 16 14 8 10 12 7 4 6 6 6 8 7 4 4 5
8 5 9 3 6 3 4 1 7 9 9 14 21 22 32 36 42 38 39 39 40 37 37 36 31 28 27 25 24 21 22 25 23 18 18 19 13 9 14 11 8 9 9 11 10 7 6 4 7
6 4 6 4 1 1 4 5 3 1 9 10 12 21 23 33 38 40 39 35 37 39 38 39 34 32 29 28 24 24 22 22 21 21 21 19 19 16 15 14 10 11 11 13 8 7 6 6 2
4 4 4 2 3 2 3 5 3 18 5 9 10 27 25 27 21 36 38 31 34 38 35 39 37 33 31 29 25 23 24 23 23 25 24 23 21 21 19 16 14 10 12 16 12 8 7 5 6
9 8 8 5 9 4 4 5 11 19 4 16 16 24 25 25 25 28 33 38 36 37 35 34 37 34 30 28 25 23 20 26 26 27 26 25 25 26 23 20 15 11 13 15 11 7 7 4 3
Wind_Direction
122 129 103 309 280 30 339 55 112 117 71 102 79 112 148 178 160 160 130 158 148 147 145 136 133 130 130 128 125 126 122 117 113 111 115 116 113 109 109 111 114 112 105 100 98 102 107 111 107
129 126 167 282 99 40 314 135 99 103 117 96 93 92 84 90 105 128 133 155 149 144 145 140 136 132 129 130 131 130 126 122 118 114 116 115 109 109 108 111 113 113 111 109 107 108 108 109 106
79 231 288 191 208 142 206 260 111 92 105 102 104 90 99 114 120 129 138 134 139 141 144 141 138 138 136 136 139 135 131 127 127 126 121 116 113 109 110 111 112 113 114 113 115 115 115 119 113
47 272 270 291 354 181 150 131 134 110 104 104 115 94 114 126 124 134 136 133 125 130 143 140 139 141 142 141 139 137 136 135 134 132 129 127 121 114 112 111 112 112 118 117 116 116 116 118 122
310 44 285 232 152 73 85 124 100 100 95 109 101 107 123 132 128 134 143 144 138 136 142 139 139 141 143 145 145 144 143 140 139 139 138 138 137 135 133 125 122 121 123 119 125 132 131 133 129
50 22 300 254 27 334 84 94 62 102 116 106 107 112 120 142 138 143 157 154 138 138 141 136 137 139 140 143 145 147 148 146 149 155 157 161 161 154 149 135 137 134 129 130 129 129 122 126 142
345 102 277 345 304 290 75 87 97 116 117 111 125 123 134 143 141 147 153 149 144 144 144 143 141 140 139 139 142 144 144 151 159 158 157 148 137 140 145 144 154 156 153 151 129 128 118 110 106
253 354 290 197 181 223 124 90 97 112 124 131 132 136 146 149 150 152 156 149 136 136 144 144 143 141 143 143 143 148 154 159 157 154 151 145 144 134 127 126 111 133 190 208 202 193 177 147 114
212 316 339 290 197 231 136 115 111 125 137 142 140 141 146 148 151 155 145 150 144 133 129 128 140 142 139 147 143 144 141 135 135 139 139 136 150 134 126 105 70 64 168 216 211 166 149 176 166
151 165 229 214 331 260 149 132 137 145 111 121 130 138 145 155 149 154 150 156 158 152 146 127 130 128 133 150 142 140 133 123 127 117 101 118 94 68 78 71 37 48 182 188 178 61 176 187 177
185 183 171 277 168 103 23 109 103 95 102 136 140 142 156 164 156 150 152 162 160 160 156 155 141 136 136 126 141 136 145 139 131 141 109 97 198 53 29 34 1 19 247 349 268 282 189 183 194
67 291 177 112 63 54 360 81 350 149 139 141 143 149 160 168 152 154 163 169 155 162 151 163 160 156 160 130 135 130 128 149 110 114 187 241 251 272 309 327 287 312 357 318 302 252 272 268 233
31 357 24 349 93 97 85 26 312 306 134 141 146 154 160 169 163 168 170 167 165 152 148 156 153 163 179 154 180 220 149 163 199 142 35 157 192 246 246 267 272 280 269 261 271 254 260 264 274
35 61 279 331 92 115 108 132 97 84 137 141 149 161 166 174 175 173 171 160 161 161 166 174 177 174 167 174 185 173 192 186 206 292 275 218 234 207 262 270 276 273 274 276 273 267 269 260 228
142 104 335 307 294 91 124 83 264 101 138 146 158 165 174 177 181 172 174 170 172 173 178 186 189 197 195 207 191 193 167 174 177 235 241 276 274 239 254 271 278 286 281 265 247 249 260 272 258
332 90 228 245 203 172 135 260 237 234 228 154 167 172 178 184 181 169 175 171 172 176 180 184 193 206 192 203 197 183 164 156 207 222 239 282 303 280 277 289 301 303 290 290 268 257 247 263 255
53 186 221 132 205 129 55 349 334 318 256 168 171 177 182 190 181 168 174 176 173 179 179 181 193 202 189 187 153 153 158 185 203 222 251 286 307 317 318 313 314 318 314 310 268 243 225 253 280
270 315 352 206 164 125 92 23 305 250 261 227 175 181 189 195 175 169 175 176 174 179 181 175 189 205 207 186 167 161 164 180 215 224 239 264 301 299 309 321 328 336 342 352 182 179 192 213 294
269 256 230 115 166 115 135 165 235 241 256 240 181 183 193 191 174 173 177 182 181 180 181 182 184 198 204 197 193 172 168 172 197 229 230 211 230 283 295 318 347 11 24 69 121 137 128 98 74
241 255 288 283 96 116 157 190 213 220 233 221 184 182 185 192 172 173 179 183 184 185 191 193 189 194 206 214 201 186 170 191 229 227 247 231 245 252 303 309 6 35 44 67 108 115 102 85 43
278 238 300 77 303 116 165 147 218 219 206 176 190 183 182 188 175 175 181 184 184 187 193 199 194 200 213 220 186 174 210 226 224 214 196 137 206 258 285 322 41 79 68 64 79 72 64 81 58
312 305 32 21 6 277 139 221 227 195 202 174 190 175 184 185 184 177 182 185 187 194 197 194 194 195 203 208 186 200 217 216 196 156 229 133 141 284 311 314 74 102 62 43 39 38 42 82 104
264 296 335 342 292 46 347 81 266 166 225 195 174 178 183 186 189 181 182 188 192 193 194 193 192 191 192 203 203 202 216 217 220 260 192 63 78 78 319 348 142 125 84 7 16 60 102 101 107
313 302 346 329 26 341 358 80 284 181 198 188 191 181 181 181 189 184 185 187 192 196 195 191 192 201 205 209 211 212 218 226 237 202 188 61 106 253 283 355 127 156 164 182 188 182 172 147 139
291 312 322 39 67 253 281 67 230 271 170 179 182 189 169 176 176 184 185 186 186 193 195 194 199 203 209 215 215 214 223 220 208 213 196 216 234 272 251 264 283 165 180 202 183 154 135 146 165
262 188 169 204 192 241 345 251 270 144 96 166 170 181 166 168 174 179 188 193 190 193 199 201 203 207 210 216 218 221 220 223 217 212 204 216 200 228 239 260 285 222 207 185 171 161 154 144 147
274 304 237 244 283 70 228 40 38 107 101 101 140 155 162 161 178 175 189 195 193 197 200 208 207 215 217 220 224 222 222 222 224 220 219 233 252 239 216 252 266 237 207 179 184 188 205 223 130
168 257 8 347 235 316 331 59 63 124 137 150 149 156 158 176 173 180 180 190 199 201 207 210 215 215 219 220 226 227 229 225 223 221 220 215 232 237 229 249 238 221 189 186 185 205 234 235 191
311 277 278 187 158 185 119 282 58 333 182 146 158 158 161 169 171 178 180 187 196 204 206 210 213 216 220 222 223 229 231 227 226 229 226 219 227 235 236 245 251 226 192 189 194 213 202 250 250
215 226 196 134 278 222 161 273 189 204 105 85 114 158 163 169 175 177 177 189 194 196 199 208 212 217 220 224 228 234 236 231 230 232 232 230 224 231 244 249 254 221 192 199 201 220 250 252 213